When you browse on this site, cookies collect data to enhance your experience and personalize the content and advertising you see.
Visit our Privacy Policy to learn more. By continuing to use the site, you agree to this use of cookies and data.
  • în România
  • Lista ţărilor
  • Pe 7 zile
  • Temperatura apei
  • Hartă satelitară
  • Meteo pe hartă
  • Widget-uri
  • user-avatar
    Intrare

    Meteo pe oră la Arriba

    Astăzi, 22 Aprilie, Luni

    Timp Temperatura Precipitaţii Vânt Presiune Umiditate
    00:00 +14°C° 0 mm 2 m/s 748 mmHg 64%
    01:00 +14°C° 0 mm 2 m/s 748 mmHg 65%
    02:00 +14°C° 0 mm 1 m/s 747 mmHg 65%
    03:00 +13°C° 0 mm 1 m/s 747 mmHg 66%
    04:00 +13°C° 0 mm 1 m/s 747 mmHg 67%
    05:00 +12°C° 0 mm 0 m/s 747 mmHg 69%
    06:00 +13°C° 0 mm 0 m/s 747 mmHg 68%
    07:00 +15°C° 0 mm 1 m/s 747 mmHg 64%
    08:00 +18°C° 0 mm 1 m/s 747 mmHg 60%
    09:00 +18°C° 0 mm 2 m/s 746 mmHg 56%
    10:00 +20°C° 0 mm 3 m/s 746 mmHg 50%
    11:00 +22°C° 0 mm 4 m/s 746 mmHg 44%
    12:00 +23°C° 0 mm 4 m/s 746 mmHg 41%
    13:00 +23°C° 0 mm 5 m/s 746 mmHg 42%
    14:00 +23°C° 0 mm 6 m/s 745 mmHg 42%
    15:00 +23°C° 0 mm 7 m/s 745 mmHg 42%
    16:00 +22°C° 0 mm 7 m/s 745 mmHg 46%
    17:00 +21°C° 0 mm 8 m/s 745 mmHg 50%
    18:00 +20°C° 0 mm 8 m/s 744 mmHg 54%
    19:00 +18°C° 0 mm 7 m/s 744 mmHg 61%
    20:00 +17°C° 0 mm 7 m/s 745 mmHg 67%
    21:00 +15°C° 0 mm 6 m/s 745 mmHg 74%
    22:00 +15°C° 0 mm 6 m/s 745 mmHg 78%
    23:00 +14°C° 0 mm 6 m/s 744 mmHg 82%

    Mâine, 23 Aprilie, Marţi

    Timp Temperatura Precipitaţii Vânt Presiune Umiditate
    00:00 +14°C° 0 mm 6 m/s 744 mmHg 86%
    01:00 +12°C° 1.6 mm 7 m/s 744 mmHg 85%
    02:00 +12°C° 1.6 mm 7 m/s 744 mmHg 84%
    03:00 +11°C° 1.6 mm 8 m/s 744 mmHg 84%
    04:00 +10°C° 0.2 mm 7 m/s 744 mmHg 82%
    05:00 +9°C° 0.2 mm 6 m/s 744 mmHg 79%
    06:00 +8°C° 0.2 mm 6 m/s 744 mmHg 77%
    07:00 +10°C° 0 mm 6 m/s 745 mmHg 70%
    08:00 +11°C° 0 mm 6 m/s 746 mmHg 63%
    09:00 +13°C° 0 mm 6 m/s 746 mmHg 57%
    10:00 +14°C° 0 mm 6 m/s 746 mmHg 50%
    11:00 +16°C° 0 mm 6 m/s 747 mmHg 44%
    12:00 +17°C° 0 mm 6 m/s 747 mmHg 38%
    13:00 +17°C° 0 mm 7 m/s 746 mmHg 39%
    14:00 +17°C° 0 mm 7 m/s 746 mmHg 39%
    15:00 +17°C° 0 mm 8 m/s 746 mmHg 40%
    16:00 +16°C° 0 mm 8 m/s 746 mmHg 42%
    17:00 +16°C° 0 mm 8 m/s 747 mmHg 45%
    18:00 +15°C° 0 mm 8 m/s 747 mmHg 47%
    19:00 +14°C° 0 mm 7 m/s 748 mmHg 52%
    20:00 +13°C° 0 mm 6 m/s 748 mmHg 57%
    21:00 +12°C° 0 mm 5 m/s 749 mmHg 61%
    22:00 +10°C° 0 mm 5 m/s 749 mmHg 64%
    23:00 +11°C° 0 mm 4 m/s 750 mmHg 66%

    Poimâine, 24 Aprilie, Miercuri

    Timp Temperatura Precipitaţii Vânt Presiune Umiditate
    00:00 +11°C° 0 mm 4 m/s 750 mmHg 69%
    01:00 +11°C° 0 mm 3 m/s 750 mmHg 72%
    02:00 +10°C° 0 mm 3 m/s 749 mmHg 75%
    03:00 +10°C° 0 mm 3 m/s 749 mmHg 78%
    04:00 +10°C° 0.1 mm 3 m/s 749 mmHg 79%
    05:00 +11°C° 0.1 mm 4 m/s 749 mmHg 81%
    06:00 +11°C° 0.1 mm 4 m/s 750 mmHg 82%
    07:00 +13°C° 0.1 mm 5 m/s 750 mmHg 76%
    08:00 +15°C° 0.1 mm 7 m/s 750 mmHg 69%
    09:00 +16°C° 0.1 mm 8 m/s 751 mmHg 62%
    10:00 +17°C° 0.1 mm 9 m/s 751 mmHg 61%
    11:00 +18°C° 0.1 mm 9 m/s 751 mmHg 59%
    12:00 +18°C° 0.1 mm 10 m/s 751 mmHg 57%
    13:00 +18°C° 0.2 mm 10 m/s 751 mmHg 61%
    14:00 +17°C° 0.2 mm 10 m/s 751 mmHg 64%
    15:00 +17°C° 0.2 mm 10 m/s 751 mmHg 68%
    16:00 +16°C° 0.3 mm 10 m/s 751 mmHg 71%
    17:00 +16°C° 0.3 mm 9 m/s 751 mmHg 74%
    18:00 +16°C° 0.3 mm 9 m/s 751 mmHg 77%
    19:00 +16°C° 0.4 mm 9 m/s 752 mmHg 80%
    20:00 +15°C° 0.4 mm 8 m/s 752 mmHg 83%
    21:00 +15°C° 0.4 mm 7 m/s 753 mmHg 85%
    22:00 +15°C° 0.3 mm 7 m/s 753 mmHg 86%
    23:00 +15°C° 0.3 mm 7 m/s 753 mmHg 88%

    25 Aprilie, Joi

    Timp Temperatura Precipitaţii Vânt Presiune Umiditate
    00:00 +15°C° 0.3 mm 6 m/s 753 mmHg 89%
    01:00 +15°C° 0 mm 6 m/s 752 mmHg 89%
    02:00 +14°C° 0 mm 6 m/s 752 mmHg 90%
    03:00 +14°C° 0 mm 6 m/s 752 mmHg 90%
    04:00 +14°C° 0.2 mm 6 m/s 752 mmHg 89%
    05:00 +15°C° 0.2 mm 6 m/s 752 mmHg 88%
    06:00 +15°C° 0.2 mm 7 m/s 753 mmHg 86%
    07:00 +15°C° 0.1 mm 6 m/s 753 mmHg 81%
    08:00 +15°C° 0.1 mm 6 m/s 754 mmHg 75%
    09:00 +15°C° 0.1 mm 6 m/s 755 mmHg 69%
    10:00 +17°C° 0 mm 6 m/s 755 mmHg 61%
    11:00 +19°C° 0 mm 6 m/s 755 mmHg 54%
    12:00 +20°C° 0 mm 6 m/s 756 mmHg 46%
    13:00 +20°C° 0 mm 6 m/s 756 mmHg 47%
    14:00 +20°C° 0 mm 6 m/s 756 mmHg 47%
    15:00 +20°C° 0 mm 6 m/s 756 mmHg 48%
    16:00 +20°C° 0 mm 6 m/s 756 mmHg 47%
    17:00 +19°C° 0 mm 5 m/s 757 mmHg 47%
    18:00 +17°C° 0 mm 5 m/s 757 mmHg 47%
    19:00 +16°C° 0 mm 5 m/s 758 mmHg 51%
    20:00 +14°C° 0 mm 5 m/s 759 mmHg 55%
    21:00 +13°C° 0 mm 5 m/s 760 mmHg 59%
    22:00 +12°C° 0 mm 5 m/s 760 mmHg 62%
    23:00 +11°C° 0 mm 4 m/s 760 mmHg 66%

    26 Aprilie, Vineri

    Timp Temperatura Precipitaţii Vânt Presiune Umiditate
    00:00 +11°C° 0 mm 4 m/s 760 mmHg 70%
    01:00 +10°C° 0 mm 4 m/s 761 mmHg 71%
    02:00 +10°C° 0 mm 4 m/s 761 mmHg 73%
    03:00 +9°C° 0 mm 3 m/s 761 mmHg 75%
    04:00 +9°C° 0 mm 3 m/s 761 mmHg 75%
    05:00 +9°C° 0 mm 3 m/s 761 mmHg 76%
    06:00 +8°C° 0 mm 3 m/s 761 mmHg 77%
    07:00 +11°C° 0 mm 3 m/s 762 mmHg 66%
    08:00 +13°C° 0 mm 4 m/s 762 mmHg 56%
    09:00 +15°C° 0 mm 4 m/s 762 mmHg 45%
    10:00 +18°C° 0 mm 4 m/s 762 mmHg 40%
    11:00 +19°C° 0 mm 4 m/s 762 mmHg 36%
    12:00 +21°C° 0 mm 3 m/s 762 mmHg 32%
    13:00 +22°C° 0 mm 3 m/s 761 mmHg 31%
    14:00 +24°C° 0 mm 3 m/s 761 mmHg 30%
    15:00 +24°C° 0 mm 3 m/s 760 mmHg 29%
    16:00 +24°C° 0 mm 3 m/s 760 mmHg 32%
    17:00 +22°C° 0 mm 4 m/s 760 mmHg 35%
    18:00 +22°C° 0 mm 4 m/s 760 mmHg 38%
    19:00 +20°C° 0 mm 4 m/s 760 mmHg 42%
    20:00 +18°C° 0 mm 4 m/s 761 mmHg 47%
    21:00 +15°C° 0 mm 4 m/s 761 mmHg 51%
    22:00 +14°C° 0 mm 4 m/s 761 mmHg 53%
    23:00 +14°C° 0 mm 4 m/s 761 mmHg 54%

    27 Aprilie, Sâmbătă

    Timp Temperatura Precipitaţii Vânt Presiune Umiditate
    00:00 +13°C° 0 mm 5 m/s 761 mmHg 55%
    01:00 +13°C° 0 mm 5 m/s 761 mmHg 55%
    02:00 +13°C° 0 mm 5 m/s 761 mmHg 55%
    03:00 +13°C° 0 mm 5 m/s 761 mmHg 55%
    04:00 +13°C° 0 mm 5 m/s 761 mmHg 52%
    05:00 +13°C° 0 mm 5 m/s 761 mmHg 49%
    06:00 +13°C° 0 mm 5 m/s 761 mmHg 46%
    07:00 +15°C° 0 mm 6 m/s 761 mmHg 44%
    08:00 +17°C° 0 mm 6 m/s 761 mmHg 41%
    09:00 +20°C° 0 mm 7 m/s 761 mmHg 39%
    10:00 +22°C° 0 mm 6 m/s 761 mmHg 38%
    11:00 +24°C° 0 mm 6 m/s 761 mmHg 36%
    12:00 +26°C° 0 mm 6 m/s 760 mmHg 35%
    13:00 +27°C° 0 mm 6 m/s 760 mmHg 34%
    14:00 +28°C° 0 mm 6 m/s 759 mmHg 32%
    15:00 +28°C° 0 mm 6 m/s 759 mmHg 31%
    16:00 +28°C° 0 mm 5 m/s 758 mmHg 33%
    17:00 +27°C° 0 mm 4 m/s 758 mmHg 35%
    18:00 +26°C° 0 mm 4 m/s 758 mmHg 38%
    19:00 +24°C° 0 mm 3 m/s 758 mmHg 43%
    20:00 +21°C° 0 mm 3 m/s 759 mmHg 48%
    21:00 +19°C° 0 mm 2 m/s 759 mmHg 53%
    22:00 +18°C° 0 mm 2 m/s 759 mmHg 55%
    23:00 +17°C° 0 mm 2 m/s 759 mmHg 56%
    Arată mai mult